SCP
0 0 0 0 0 0 0 0 0 0 0 0 0 0 0 0 0 0 0 0 0 0 0 0 0 0 0 0 0 0 0 0 0 0 0 0 0 0 0 0 0 0 0
0 0 0 0 0 0 0 0 0 0 0 0 0 0 0 0 0 0 0 0 0 0 0 0 0 0 0 0 0 0 0 0 0 0 0 0 0 0 0 0 0 0 0
0 0 0 0 0 0 0 0 0 0 0 0 0 0 0 0 0 0 0 0 0 0 0 0 0 0 0 0 0 0 0 0 0 0 0 0 0 0 0 0 0 0 0
0 0 0 0 0 0 0 0 0 0 0 0 0 0 0 0 0 0 0 0 0 0 0 0 0 0 0 0 0 0 0 -0 0 0 0 0 0 0 0 0 0 0 0
0 0 0 0 0 0 0 0 0 0 0 0 0 0 0 0 0 0 0 0 0 0 0 0 0 0 0 0 0 0 -0 -0 0 0 0 0 0 0 0 0 0 0 0
0 0 0 0 0 0 0 0 0 0 0 0 0 0 0 0 0 0 0 0 0 0 0 0 0 0 0 0 0 0 -0 -0 0 0 0 0 0 0 0 0 0 0 0
0 0 0 0 0 0 0 0 0 0 0 0 0 0 0 0 0 0 0 0 0 0 0 0 0 0 0 0 0 0 -0 0 0 0 0 0 0 0 0 0 0 0 0
1 0 0 0 0 0 0 0 0 0 0 0 0 0 0 0 0 0 0 0 0 0 0 0 0 0 0 0 0 0 0 0 0 0 0 0 0 0 0 0 0 0 0
1 1 0 0 0 0 0 0 0 0 0 0 0 0 0 0 0 0 0 0 0 0 0 0 0 0 0 0 0 0 0 0 0 0 0 1 1 1 0 0 0 0 0
1 1 0 0 0 0 1 1 1 0 0 0 0 0 0 0 0 0 0 0 1 0 0 0 0 0 0 0 0 0 0 0 0 0 0 1 1 1 1 0 0 0 0
1 1 1 1 1 1 1 1 1 1 1 1 0 1 1 1 1 1 1 1 1 1 1 1 1 0 0 0 0 0 0 0 0 0 1 1 1 1 1 1 0 0 0
1 1 1 1 1 1 1 1 1 1 1 1 1 1 1 1 1 1 1 1 1 1 1 1 1 1 1 1 1 1 0 0 0 0 1 1 1 1 1 1 1 1 0
1 1 1 1 1 1 1 1 1 1 1 1 1 1 1 1 1 1 1 1 1 1 1 1 1 1 1 1 1 1 1 0 0 0 1 1 1 1 1 1 1 1 1
1 1 1 1 1 1 1 1 1 1 1 1 1 1 1 1 1 1 1 1 1 1 1 1 1 1 1 1 1 1 1 0 0 0 1 1 1 1 1 1 1 1 1
1 1 1 1 1 1 1 1 1 1 1 1 1 1 1 1 1 1 1 1 1 1 1 1 1 1 1 1 1 1 0 1 1 1 1 1 1 1 1 1 1 1 1
1 1 1 1 1 1 1 1 1 1 1 1 1 1 1 1 1 1 1 1 1 1 1 1 1 0 0 0 0 0 0 0 1 1 1 1 1 1 1 1 1 1 1
1 1 1 1 1 1 1 1 1 1 1 1 1 1 0 0 0 0 0 0 0 0 0 0 0 0 0 0 0 0 0 0 1 1 1 1 1 1 1 1 1 1 1
1 1 1 1 1 1 1 1 1 1 1 0 0 0 0 0 0 0 0 0 0 0 0 0 0 0 0 0 0 0 0 0 0 1 1 1 1 1 1 1 1 1 1
1 1 1 1 1 1 1 1 1 1 0 0 0 0 0 0 0 0 0 0 0 0 0 0 0 0 0 0 0 0 0 0 0 0 0 1 1 1 1 1 1 1 1
1 1 1 1 1 1 1 1 0 0 0 0 0 0 0 0 0 0 0 0 0 0 0 0 0 0 0 0 0 0 0 0 0 0 0 0 1 1 1 1 1 1 1
1 1 1 1 1 1 0 0 0 0 0 0 0 0 0 0 0 0 0 0 0 0 0 0 0 0 0 0 0 0 0 0 0 0 0 0 0 1 1 1 1 1 1
1 1 1 1 1 1 1 0 0 0 0 0 0 0 0 0 0 0 0 0 0 0 0 0 0 0 0 0 0 0 0 0 0 0 0 0 0 1 1 1 1 1 1
1 1 1 1 1 1 1 0 0 0 0 0 0 0 0 0 0 0 0 0 0 0 0 0 0 0 0 0 0 0 0 0 0 0 0 0 0 0 0 0 1 1 1
0 0 1 1 1 1 1 1 0 0 0 0 0 0 0 0 0 0 0 0 0 0 0 0 0 0 0 0 0 0 0 0 0 0 0 0 0 0 0 0 0 1 1
0 0 1 1 1 1 1 1 1 1 0 0 0 0 0 0 0 0 0 0 0 0 0 0 0 0 0 0 0 0 0 0 0 0 0 0 0 0 0 0 0 1 1
0 1 1 1 1 1 1 1 1 1 1 0 0 0 0 0 0 0 0 0 0 0 0 0 0 0 0 0 0 0 0 0 0 0 0 0 0 0 0 0 0 0 0
Wind_Speed
17 16 15 14 12 11 11 11 11 11 10 10 10 11 11 11 10 10 10 10 9 10 10 9 9 8 9 9 9 9 9 9 9 10 11 11 11 10 9 10 11 11 14
20 17 16 14 12 11 11 11 11 11 11 11 11 10 10 10 10 9 9 9 8 9 9 9 9 9 8 8 8 8 7 6 6 7 9 10 10 9 8 7 10 10 13
19 16 15 14 13 12 12 11 11 11 11 11 11 11 10 9 9 9 8 8 8 8 8 8 8 8 8 7 7 6 5 4 4 4 6 6 8 9 9 12 15 13 13
19 16 15 15 14 13 12 12 12 12 12 11 11 10 10 9 8 8 7 7 7 7 7 7 7 7 7 6 6 5 3 2 1 1 3 4 7 10 11 13 13 12 12
17 16 15 15 14 13 12 12 12 12 12 11 10 10 9 8 7 7 6 6 6 6 6 6 6 6 6 5 4 3 2 2 3 4 1 6 7 10 11 12 12 12 11
18 16 15 15 14 13 12 12 11 11 11 10 10 9 8 7 6 6 5 5 5 5 5 5 5 5 4 4 3 1 2 4 7 3 3 8 8 10 11 11 11 11 10
18 16 15 15 14 12 11 11 10 10 9 9 8 7 6 6 5 5 4 4 4 4 4 4 4 3 3 3 2 1 3 6 7 3 4 8 9 11 11 10 10 10 10
19 17 15 14 13 12 11 10 9 9 8 7 7 6 5 4 4 3 3 3 3 3 3 3 3 3 3 2 2 3 5 8 7 3 5 9 13 12 11 10 10 10 10
19 17 14 13 11 11 10 9 9 8 7 6 6 5 4 4 4 4 4 4 3 3 3 3 3 4 4 4 4 5 6 8 8 5 4 8 15 14 13 11 10 10 10
16 15 14 13 11 10 10 10 9 8 7 6 6 6 6 6 6 6 6 6 5 4 4 4 4 5 6 6 7 7 7 7 9 8 2 9 17 16 14 12 11 11 10
13 11 12 12 10 9 10 10 10 9 8 7 6 7 6 5 5 6 6 6 6 5 5 5 5 6 6 8 10 10 8 6 8 5 2 13 17 17 15 13 12 12 11
11 11 9 8 8 6 6 7 6 6 6 5 3 4 3 2 1 1 5 6 5 6 6 6 7 7 7 5 8 10 5 7 7 4 4 18 17 17 16 14 13 13 12
9 8 10 9 5 4 4 4 2 2 3 2 2 1 1 1 1 1 1 2 2 4 3 3 4 4 3 3 2 3 6 6 4 2 5 14 14 15 16 15 14 13 13
8 7 8 9 6 4 4 2 2 2 2 2 2 3 2 1 1 2 1 1 1 1 1 1 1 2 3 3 4 4 5 4 3 1 4 12 13 14 15 15 15 15 14
8 7 8 7 7 5 3 2 2 3 2 3 2 3 3 2 2 2 1 1 2 1 0 1 1 2 3 4 4 5 5 5 5 4 3 11 14 14 14 15 16 16 16
8 7 7 7 7 5 3 2 1 2 2 3 3 3 3 2 2 2 2 1 2 1 1 2 3 2 3 3 5 5 5 6 5 5 3 6 11 13 14 15 16 17 17
8 7 6 7 6 5 3 2 1 1 3 3 3 3 3 4 3 3 2 1 1 1 1 2 3 3 4 4 4 4 5 5 5 6 5 4 6 12 15 15 16 17 18
8 7 5 6 7 5 3 1 2 2 3 2 2 4 4 3 3 3 3 2 3 3 2 2 2 2 2 3 3 3 4 4 6 6 6 6 5 6 11 17 17 17 19
8 7 6 7 6 5 4 2 3 3 2 1 2 4 3 3 3 3 3 2 3 3 3 4 2 3 3 4 4 5 4 4 5 7 7 7 7 7 6 11 18 19 21
8 7 7 7 6 4 3 2 2 2 2 1 2 4 3 2 3 3 3 3 4 3 3 3 4 3 3 4 7 6 4 5 5 6 7 6 6 8 9 9 10 14 21
8 7 6 6 5 2 1 1 1 1 0 0 2 4 3 2 3 2 3 4 3 3 3 4 4 5 4 4 4 5 5 7 6 6 5 4 4 5 5 6 6 6 8
9 7 7 6 6 3 2 1 1 0 1 1 1 2 2 1 1 3 3 3 4 4 4 4 3 3 4 5 4 4 5 5 3 3 3 4 4 2 2 5 4 6 6
9 8 7 7 6 4 3 1 1 0 2 1 1 1 2 1 1 1 2 3 3 4 4 4 3 4 4 4 4 3 3 3 5 3 3 1 1 1 1 2 4 5 7
10 9 7 7 5 4 3 1 2 2 2 2 1 0 1 1 2 2 2 2 2 3 5 5 4 4 4 4 4 3 3 3 3 4 4 3 2 2 3 3 3 3 5
10 10 8 7 6 4 3 2 2 3 2 2 3 3 2 3 3 3 3 1 1 3 4 4 4 4 4 4 4 4 5 3 3 4 5 5 4 2 3 3 3 3 4
9 8 9 8 6 5 4 3 2 2 2 3 4 4 3 2 2 2 2 1 1 2 3 4 4 5 4 4 4 4 5 4 4 3 4 5 5 3 3 2 2 3 3
Wind_Direction
114 117 113 107 105 112 123 130 131 126 121 116 111 108 104 101 99 95 91 87 83 80 77 74 73 70 67 66 65 64 64 68 76 83 88 90 93 96 100 109 110 102 107
116 117 113 108 104 108 117 124 127 126 121 118 115 114 112 109 106 102 98 93 87 83 79 76 74 74 73 72 73 72 71 73 85 98 106 103 98 96 97 103 102 110 112
115 119 116 109 106 106 110 116 120 122 122 119 119 118 117 115 112 109 104 98 91 87 83 80 80 80 79 77 76 75 76 78 94 125 140 123 108 98 96 100 107 115 114
121 126 117 114 110 108 109 113 116 118 120 121 121 122 122 121 119 116 111 105 98 93 89 86 86 86 85 82 78 73 70 65 52 223 194 140 120 106 107 110 114 117 118
117 115 118 119 115 112 112 113 116 118 121 122 123 125 125 125 123 120 117 113 107 102 97 92 95 95 94 89 81 70 33 336 302 268 195 103 102 120 118 118 120 122 123
120 120 120 121 118 117 116 117 119 121 124 126 128 129 131 131 130 127 123 119 115 110 106 104 106 107 107 106 95 59 326 313 299 271 140 121 119 130 130 130 129 131 129
124 121 124 124 122 121 121 122 122 125 128 130 132 134 137 140 141 141 139 132 121 118 119 117 118 124 131 139 147 258 298 303 284 283 125 121 128 138 139 140 139 140 138
124 123 125 127 127 128 129 129 130 132 135 139 142 146 150 154 161 166 166 162 152 148 145 148 150 155 167 188 211 249 281 294 296 299 130 128 140 145 146 148 149 149 147
123 127 137 138 137 138 140 140 142 145 148 154 160 166 173 181 188 193 194 189 181 173 177 188 196 199 202 213 227 244 266 284 292 280 152 138 149 150 154 157 160 160 159
128 136 143 145 148 156 155 156 158 163 166 174 182 188 198 210 214 215 210 198 199 202 202 210 220 221 220 223 228 234 248 270 268 267 167 151 155 155 159 165 169 170 171
125 132 140 143 154 166 163 159 168 176 181 190 196 206 217 233 225 211 217 187 198 212 221 227 234 236 233 232 231 231 235 246 257 256 143 154 161 159 164 171 176 177 178
127 130 130 137 141 154 151 147 176 176 172 198 181 189 215 252 278 163 149 178 200 219 230 233 238 242 239 239 230 223 228 238 256 258 157 161 165 165 167 174 181 185 185
132 131 128 117 114 113 115 144 131 128 146 174 119 129 108 340 341 54 126 169 214 229 237 234 229 244 252 259 272 216 228 248 251 259 157 165 169 173 174 178 185 190 192
136 124 119 115 104 69 57 67 95 103 118 98 84 50 40 23 8 23 17 7 290 243 222 260 237 257 274 276 272 264 250 246 265 276 170 170 179 186 184 184 190 196 197
128 117 97 97 96 85 62 25 57 63 67 90 76 58 19 14 29 21 358 328 298 302 328 320 292 285 277 271 261 261 268 264 260 249 198 186 190 192 194 194 198 202 204
123 114 110 109 105 106 106 85 46 79 94 79 80 77 43 40 37 6 316 307 298 326 348 290 271 261 258 254 256 252 249 255 253 256 231 203 200 201 202 205 207 208 209
129 122 122 126 121 124 123 139 125 102 89 91 103 89 59 45 24 348 313 324 360 323 282 266 277 274 268 263 258 261 256 254 254 246 242 223 209 213 213 213 212 212 213
132 134 147 129 120 116 106 89 75 62 73 91 105 97 72 44 23 341 331 15 3 332 311 287 260 277 301 307 298 279 266 253 254 245 233 227 221 221 219 221 219 217 217
129 129 115 106 121 128 136 134 107 98 83 75 79 83 67 24 18 353 341 356 337 324 315 314 5 356 330 320 299 268 256 249 243 246 234 229 222 219 216 218 219 219 220
125 124 122 121 121 140 143 142 131 128 145 137 104 103 81 22 25 11 318 10 356 326 330 345 339 322 298 283 287 297 289 263 247 242 238 232 223 224 221 219 210 219 222
136 140 143 136 137 151 141 147 120 109 83 126 128 108 91 40 21 336 325 349 325 322 338 328 332 321 308 288 286 288 280 263 243 228 224 228 234 235 227 217 203 203 214
150 151 148 153 157 171 138 116 150 80 286 280 83 126 130 97 1 314 24 339 340 337 311 295 297 297 303 312 311 304 300 293 307 262 214 209 219 223 244 238 216 209 214
162 168 171 166 163 170 157 197 264 176 255 266 87 127 109 56 314 319 322 313 329 315 318 337 315 308 305 306 297 299 306 326 335 323 332 298 195 205 244 259 239 224 223
173 175 167 164 165 161 180 224 266 271 293 320 311 83 86 292 266 267 273 294 315 313 313 310 354 333 312 304 303 297 283 302 307 318 320 318 275 235 229 251 262 245 234
180 177 169 161 161 167 192 229 258 294 325 352 6 354 336 271 242 226 226 229 284 288 299 320 320 313 309 305 311 314 309 298 262 264 291 306 301 272 240 230 237 239 241
181 173 168 160 165 175 196 224 231 279 318 323 318 299 289 282 264 222 216 170 262 286 306 308 300 291 285 293 298 301 302 298 293 289 292 298 296 290 271 251 247 238 235